Observations for Trim Market St
| Time | AQI | Temp °C | Hum % | Pres Pa | CO μg/m³ | H₂S μg/m³ | NO μg/m³ | NO₂ μg/m³ | O₃ μg/m³ | SO₂ μg/m³ | PM1 μg/m³ | PM2.5 μg/m³ | PM10 μg/m³ |
|---|---|---|---|---|---|---|---|---|---|---|---|---|---|
| Thursday 13 August 2026 | |||||||||||||
| 10:19 | 2 | 28.1 | 56 | 57,726 | 0 | 0 | 0.65 | 13.55 | 56.53 | 0 | 1.43 | 4.2 | 5.41 |
| 10:18 | 2 | 28 | 56 | 57,725 | 0 | 0 | 0.67 | 13.55 | 53.81 | 0 | 1.43 | 4.2 | 5.41 |
| 10:17 | 2 | 28 | 56 | 57,724 | 0 | 0 | 0.64 | 13.68 | 59.66 | 0 | 0.71 | 4.2 | 5.41 |
| 10:16 | 2 | 28 | 56 | 57,727 | 0 | 0 | 0.65 | 13.36 | 46.05 | 0 | 0.71 | 3.19 | 3.99 |
| 10:15 | 2 | 28 | 56 | 57,727 | 0 | 0 | 0.63 | 13.53 | 59.41 | 0 | 1.43 | 3.69 | 4.7 |
| 10:14 | 2 | 28 | 56 | 57,728 | 0 | 0 | 0.64 | 13.47 | 56.42 | 0 | 1.43 | 3.19 | 3.99 |
| 10:13 | 2 | 28 | 56 | 57,732 | 0 | 0 | 0.65 | 13.49 | 56.9 | 0 | 1.43 | 4.21 | 5.4 |
| 10:12 | 2 | 28 | 56 | 57,734 | 0 | 0 | 0.67 | 13.44 | 58.2 | 0 | 1.43 | 3.71 | 5.4 |
| 10:11 | 2 | 28 | 56 | 57,737 | 0 | 0 | 0.66 | 13.56 | 49.43 | 0 | 0.71 | 2.2 | 3.27 |
| 10:10 | 2 | 28 | 56 | 57,739 | 0 | 0 | 0.7 | 13.45 | 64.6 | 0 | 1.43 | 3.21 | 3.98 |
| 10:07 | 2 | 28.1 | 56 | 57,746 | 0 | 0 | 0.71 | 13.41 | 56.32 | 0 | 0.71 | 2.72 | 3.25 |
| 10:06 | 2 | 28.1 | 56 | 57,745 | 0 | 0 | 0.69 | 13.56 | 57.85 | 0 | 0.71 | 2.22 | 2.54 |
| 10:01 | 2 | 28.2 | 56 | 57,725 | 0 | 0 | 0.76 | 13.7 | 49.61 | 0 | 0 | 2.71 | 3.26 |
| 09:59 | 2 | 28.2 | 56 | 57,708 | 0 | 0 | 0.71 | 13.66 | 56.28 | 0 | 1.43 | 3.71 | 4.69 |
| 09:53 | 2 | 28 | 58 | 57,632 | 0 | 0 | 0.73 | 13.87 | 56.65 | 0 | 0.71 | 2.63 | 3.33 |
| 09:52 | 2 | 27.9 | 58 | 57,613 | 0 | 0 | 0.71 | 13.91 | 62.11 | 0 | 0.71 | 3.12 | 4.03 |
| 09:49 | 2 | 27.6 | 58 | 57,572 | 0 | 6.41 | 0.68 | 22.21 | 73.8 | 0 | 2.14 | 4.61 | 6.14 |
| 09:48 | 2 | 27.5 | 58 | 57,582 | 0 | 1.56 | 0.67 | 14.42 | 78.22 | 0 | 2.14 | 3.61 | 4.74 |
| 09:47 | 2 | 27.5 | 58 | 57,579 | 0 | 3.27 | 0.66 | 14.77 | 83.28 | 0 | 1.43 | 3.63 | 5.43 |
| 09:46 | 2 | 27.4 | 58 | 57,593 | 0 | 3.09 | 0.68 | 14.88 | 75.41 | 0 | 2.14 | 3.64 | 4.73 |